Showing default

MIDAS 5 (STRONGBACK), 271

Orbit data source: Space-Track

MIDAS 5 (STRONGBACK), 271 is a payload satellite owned by USAF SSD (US) in LEO that was launched on Mon, 09 Apr 1962 UTC via an ATLAS AGENA B launch vehicle from the Air Force Western Test Range (AFWTR). Payload-class satellites include a variety of spacecraft equipped with specific instruments for various scientific and technological missions. These include communications satellites like Starlink; space stations such as the ISS; scientific satellites like the Hubble; Earth observation satellites from companies like Planet Labs, Umbra, and HawkEye 360; GPS; miniature CubeSats for education and research; and military/defense satellites.

Loading next visibility...
Identifier
271, 1962-010A
Orbit
LEO
Country
Flag of USUS
Related business
Manufacturer
LMSC
Mission
Spacecraft
Bus & Motor
MIDAS, Unknown motor
Mass
~1,543 kg wet, ~840 kg dry
Launch date (UTC)
1962-04-09 (64 years ago)
Launch vehicle
ATLAS AGENA B
Launch site
Air Force Western Test Range (AFWTR)
Object type
Payload
Rocket body
Debris
Shape & HBR
Unknown
Radar Cross Section
Large (>1 m²)

Expand to show TLE details & history
Last TLE update: 1 day ago

TLE from 1 day ago
0 MIDAS 5 (STRONGBACK)
1   271U 62010A   26037.28159487  .00000023  00000-0  38864-2 0  9997
2   271  86.6762 334.9144 0327472 190.2884 169.1197  9.41308279193350
Epoch: 2026-02-06T06:45Z
TLE epoch observation values (Epoch: 2026-02-06T06:45:29.796Z)
Latitude
-0.00007°
Longitude
97.11853°
Altitude
3,404.287 km
Speed
6.28 km/s
True Right ascension
22h 19m 39s
True Declination
0° 00' 00"
Sunlit
Object was in daylight at epoch
Visualization orbit readout
Latitude
Unknown
Longitude
Unknown
Altitude
Unknown
Speed
Unknown
Apparent Right ascension
Unknown
Apparent Declination
Unknown
Sunlit
N/A
Visualization observer readout
Local Sidereal Time
08:32:27
Azimuth
Unknown
Elevation
Unknown
Doppler factor
Unknown
Orbital elements
Apogee altitude
3,404.8 km
Perigee altitude
2,784.389 km
Semi-major axis
9,472.732 km
Eccentricity
0.03275
Inclination
86.6762°
RAAN
334.9144°
Arg. of periapsis
190.2884°
True anomaly
169.80059°
Mean anomaly
169.1197°
Eccentric anomaly
169.46282°
Mean motion
2.35413 °/min
Orbital period
152.92 mins
BSTAR
0.0038864
Loading maneuver chart data...
Computing Atmospheric mass density...
Loading historical data...
Loading historical data...
Loading historical data...
Loading historical data...
Loading historical data...
Loading historical data...
Loading historical data...

Documentation

Showing up to 5 results
|